CZ-6A DEB

Satellite information

Favourite Embed

Satellite Type and Status

DEBRISIN ORBIT

Key statistics

Satellite CZ-6A DEB at a glance.

Uptime

1076

Days in orbit

Revolutions

≈ 14.8

Per day

Orbit

SSO

Sun Synchronous Orbit

Inclination

98.7

Latest

Satellite identification and parameters

Extended collection of information and parameters for CZ-6A DEB.

Object identification

Identified? True

Debris? True

Object name: CZ-6A DEB

International designator: 2022-151AFR

Object number (NORAD): 56641

Object ID (CCSDS): 56641

Country: PEOPLES REPUBLIC OF CHINA (PRC)

Current information (Y/N): Y

RCS size: SMALL

Orbital parameters

Period: 97.591 minutes

Inclination: 98.6747 deg

SMA: 7021.539 km

Apoapsis: 743.664 km

Periapsis: 543.144 km

RAAN: 16.7273 deg

Eccentricy: 0.0142789

Argument of periapsis: 218.738 deg

Mean anomaly: 140.3522 deg

Mean motion: 14.75551274 rev/day

Mean motion (dot): 0.00015374 rev/day2

B* drag term: 0.0019152 1/REarth

Two-line elements (TLE)

Creation date: Oct. 22, 2025, 12:06 a.m.

Reference frame: TEME

Reference center: EARTH

Epoch: Oct. 21, 2025, 4:43 p.m. UTC

TLE line 0: 0 CZ-6A DEB

TLE line 1: 1 56641U 22151AFR 25294.69711230 .00015374 00000-0 19152-2 0 9994

TLE line 2: 2 56641 98.6747 16.7273 0142789 218.7380 140.3522 14.75551274138494

Live tracking on map

Real-time ground track for satellite CZ-6A DEB.

In-orbit conjunctions

A list of the most updated potential collisions computed for object CZ-6A DEB.

Target Orbit TCA Probability of collision Miss distance Type
COSMOS 2251 DEB LEO 2025-06-09 01:10:13 0.0001933108 371.0 (m) DEBRIS
IRIDIUM 33 DEB LEO 2024-11-13 05:08:05 0.0004620062 166.0 (m) DEBRIS
ASUSAT SSO 2024-06-24 17:34:16 0.0001581712 773.0 (m) PAYLOAD

Associated space launch

Chinese satellite reported for atmospheric/ocean/environmental/spatial parameter research purposes, details TBD.

CZ-6A DEB was lifted into orbit during the mission ‘Long March 6A | Yunhai 3’, on board a Long March 6A space rocket.

The launch took place on Nov. 11, 2022, 10:52 p.m. from Launch Complex 9A.

For more information about the launch, click the button.

Launch to space Long March 6A | Yunhai 3
Long March 6A | Yunhai 3

Agency: N/A

Status: Launch Successful

Launch date: Nov. 11, 2022, 10:52 p.m. UTC

Rocket: Long March 6A

Launch pad: Launch Complex 9A

Location: Taiyuan Satellite Launch Center, People's Republic of China

...

Latest news about this satellite

There are no fresh news available about this satellite. Check back as we update our databases every day.


Newsletter sign-up

Weekly statistics, charts and insights to help you stay on top of the space industry.